Simultaneous Nadir Overpasses (SNOs) Predictions

Prediction of SNOs between GOES-14 and AQUA Satellite Orbit:

Table of predicted SNOs for the next 14.0 days since TLE Epoch: 2/15/2019
Index Date Time (GOES-14) GOES-14 Lat,Lon AQUA Lat,Lon Distance(km) Time Diff (sec)
1 02/16/2019 08:33:13 0.03,-104.38 0.09,-104.68 33.97 80
2 02/18/2019 08:23:42 0.04,-104.39 -0.51,-101.72 302.51 80
3 02/18/2019 20:45:06 -0.04,-104.18 -0.64,-106.90 310.59 80
4 02/20/2019 20:30:16 -0.04,-104.18 0.02,-103.96 26.05 80
5 02/22/2019 20:18:05 -0.04,-104.19 0.63,-101.00 362.94 80
6 02/23/2019 08:39:21 0.04,-104.40 0.44,-106.16 200.68 80
7 02/25/2019 08:29:51 0.04,-104.41 -0.22,-103.21 136.62 80
8 02/25/2019 20:51:14 -0.05,-104.21 -0.96,-108.38 474.81 80
9 02/27/2019 08:17:40 0.05,-104.42 -0.84,-100.25 473.98 80
10 02/27/2019 20:39:04 -0.05,-104.22 -0.28,-105.44 137.60 80




NCC Satellite Simultaneous Nadir Overpasses (SNOs) Prediction Service
